User: anonymous   Login
Location: Unspecified
(43.4680°N, 87.1740°E)
Time: 05:12:00
(UTC+00:00)
Language:

FALCON 9 DEB - Orbit

View from above orbital plane
View from above orbital plane
View from above satellite
View from above satellite

Ground track
Ground track

The orbit data is extracted from the following two-line orbital elements,

1 46085U 20055BL  21171.28176345  .00009717  00000-0  10328-3 0  9994
2 46085  53.0090 184.1671 0007796 259.6574 100.3561 15.64789972 54101
Epoch (UTC): 20 June 2021 06:45:44
Eccentricity: 0.0007796
inclination: 53.0090°
perigee height: 368 km
apogee height: 379 km
right ascension of ascending node: 184.1671°
argument of perigee: 259.6574°
revolutions per day: 15.64789972
mean anomaly at epoch: 100.3561°
orbit number at epoch: 5410

The dashed part of the orbit path shows where the satellite is in the earth's shadow,  

DLR